Regional Weather Roundup
Issued by NWS Northern Indiana

Home | Current Version | Previous Version | Graphics & Text | Print | Product List | Glossary On
Versions: 1 2 3 4 5 6 7 8 9 10 11 12 13 14 15 16 17 18 19 20 21 22 23 24 25 26 27 28 29 30 31 32 33 34 35 36 37 38 39 40 41 42 43 44 45 46 47 48 49 50
000
ASUS43 KIWX 280500
RWRIWX

KIWX WEATHER ROUNDUP
NATIONAL WEATHER SERVICE NORTHERN INDIANA
1200 AM EST WED JAN 28 2015

NOTE: "FAIR" INDICATES FEW OR NO CLOUDS BELOW 12,000 FEET WITH NO
SIGNIFICANT WEATHER AND/OR OBSTRUCTIONS TO VISIBILITY.

* THESE STATIONS ARE NOT UNDER NWS QUALITY CONTROL. THEY ALSO MAY NOT
  REPORT WEATHER SUCH AS PRECIPITATION OR FOG.

INZ001>027-280600-
NORTHERN INDIANA

CITY           SKY/WX    TMP DP  RH WIND       PRES   REMARKS
SOUTH BEND     CLEAR     15   9  76 CALM      30.25R
GOSHEN         CLEAR     13   8  81 CALM      30.24R
ANGOLA*        CLEAR     10   7  85 CALM      30.23R
FORT WAYNE     PTCLDY    11   6  81 CALM      30.24S
PERU/GRISSOM   PTCLDY    11   7  87 SE3       30.23S

$$
INZ028>050-280600-
CENTRAL INDIANA

CITY           SKY/WX    TMP DP  RH WIND       PRES   REMARKS
LAFAYETTE      CLEAR     19  15  84 CALM      30.26R
KOKOMO*        PTCLDY    12  10  92 CALM      30.24S
MUNCIE*        CLEAR     13   9  84 CALM      30.23S FOG
INDIANAPOLIS   CLEAR     20  12  71 CALM      30.24R

$$
MIZ043>046-050>051-056>058-064>065-071>073-077>080-280600-
SOUTHWEST LOWER MICHIGAN

CITY           SKY/WX    TMP DP  RH WIND       PRES   REMARKS
BATTLE CREEK   CLEAR     13   7  77 CALM      30.24R
BENTON HARBOR  CLEAR     14  11  87 CALM      30.26R
COLDWATER*     PTCLDY    11   7  85 CALM      30.23R
HILLSDALE*     PTCLDY    10   8  91 CALM      30.20S
HOLLAND        CLEAR     16  10  77 CALM      30.26R
GRAND RAPIDS   CLEAR     14   8  77 E3        30.25R
KALAMAZOO      CLEAR     13   8  81 CALM      30.25R
STURGIS*       CLEAR     12   9  85 CALM      30.23R
THREE RIVERS*  FAIR      13   9  83 CALM      30.25R

$$
OHZ001>008-015>018-024>025-280600-
NORTHWEST OHIO

CITY           SKY/WX    TMP DP  RH WIND       PRES   REMARKS
DEFIANCE       PTCLDY    10   5  80 CALM      30.25R
FINDLAY        PTCLDY    11   5  77 W3        30.21R
TOLEDO EXPRESS CLEAR     12   8  84 W3        30.24R
TOLEDO METCALF CLEAR     15   8  73 NW3       30.24R
LIMA           PTCLDY     6   1  80 W5        30.22R HAZE    WCI  -3

$$
AND FOR LAKE MICHIGAN COASTAL AND OPEN LAKE BUOY OBSERVATIONS

STATION/POSITION TEMP    WIND        PRES    VSBY  WAVE
                 AIR SEA DIR/SP/G                  HT/PER
                 (F)     (DEG/KT/KT) (MB)    (MI)  (FT/S)
CALUMET HARBOR    26     340/  2/  4   N/A
MICHIGAN CITY     23     100/  6/  7   N/A
SAINT JOSEPH      20     100/  1/  2 1025.4R

$$
&&



USA.gov is the U.S. government's official web portal to all federal, state and local government web resources and services.